AirNav   Air Wisconsin pilot careers
 
 887 users online  

KNRS Imperial Beach Naval Outlying Field (Ream Field)
Imperial Beach, California, USA

GOING TO IMPERIAL BEACH?


FAA INFORMATION EFFECTIVE 06 DECEMBER 2018

Location

FAA Identifier: NRS
Lat/Long: 32-33-58.1638N / 117-06-48.6837W
32-33.969397N / 117-06.811395W
32.5661566 / -117.1135233
(estimated)
Elevation: 23.6 ft. / 7.2 m (surveyed)
Variation: 11E (2020)
From city: 1 mile S of IMPERIAL BEACH, CA
Time zone: UTC -8 (UTC -7 during Daylight Saving Time)
Zip code: 91932

Airport Operations

Airport use: Private use. Permission required prior to landing
Activation date: 02/1944
Control tower: yes
ARTCC: LOS ANGELES CENTER
FSS: SAN DIEGO FLIGHT SERVICE STATION
FSS-SAN DIEGO SAN-NOTAM NRS
NOTAMs facility: SAN (NOTAM-D service available)
Attendance: 
OPR 1600-0630Z MON-THU (1500-0600Z DT) AND 1600-0200Z++ FRI. CLSD FR 0200Z++ DAY PRIOR TIL 1600Z++ DAY FLW GOVT HOL; EXC PRE-COORD FLT OF OPR NECESSITY. CTC NOLF ATC DSN 577-9414/9415 FOR OPR INQUIRIES.
Segmented circle: no
Lights: AVBL ONLY DURING HRS OF OPERATION.
Beacon: white-white-green (lighted military airport)
Operates sunset to sunrise.

Airport Communications

ATIS: 276.2
WX ASOS: PHONE 619-437-9890
IMPERIAL BEACH GROUND: 285.575 [1600-0630Z MON-THU (1500-0600Z DT) AND 1600-0200Z++ FRI. CLSD FR 0200Z++ DAY PRIOR TIL 1600Z++ DAY FLW GOVT HOL.]
IMPERIAL BEACH TOWER: 120.65 239.25 [1600-0630Z MON-THU (1500-0600Z DT) AND 1600-0200Z++ FRI. CLSD FR 0200Z++ DAY PRIOR TIL 1600Z++ DAY FLW GOVT HOL.]
SOCAL APPROACH: 125.15
SOCAL DEPARTURE: 125.15
EMERG: 243.0
RADAR: 318.8
WX ASOS at SDM (7 nm E): 132.35 (619-661-8297)
WX ASOS at SAN (11 nm N): PHONE 619-296-8934
WX ASOS at MYF (15 nm N): 126.9 (858-576-4337)
WX AWOS-3P at SEE (17 nm NE): 125.45 (619-449-1228)
  • ATCT/GCA/ATIS OPR PUBLISHED HRS EXC PRE-COORD FLT OF OPR NECESSITY.
  • FOR CLNC DEL WHEN ATCT CLSD CALL SOCAL APCH (800) 448-3724.
  • ILS/RADAR - RADAR - SEE TERMINAL FLIP FOR RADAR MINIMA.

Nearby radio navigation aids

VOR radial/distance  VOR name  Freq  Var
PGYr235/7.3POGGI VORTAC109.8014E
TIJr267/8.2TIJUANA VOR/DME116.5014E
MZBr141/14.1MISSION BAY VORTAC117.8015E

Airport Services

Runway Information

Runway 8/26

Dimensions: 2240 x 151 ft. / 683 x 46 m
Surface: concrete
Weight bearing capacity: 
PCN 6 /R/C/W/T
RUNWAY 8  RUNWAY 26
Latitude: 32-34.018072N32-33.921433N
Longitude: 117-06.827898W117-06.406738W
Elevation: 23.5 ft.21.2 ft.
Traffic pattern: leftleft
Touchdown point: yes, no lightsyes, no lights

Runway 9/27

Dimensions: 4997 x 336 ft. / 1523 x 102 m
Surface: PEM
Weight bearing capacity: 
PCN 8 /F/A/W/T
Runway edge lights: high intensity
RUNWAY 9  RUNWAY 27
Latitude: 32-34.076683N32-33.861790N
Longitude: 117-07.368155W117-06.428677W
Elevation: 8.2 ft.19.8 ft.
Traffic pattern: leftleft
Touchdown point: yes, no lightsyes, no lights

Airport Ownership and Management from official FAA records

Ownership: U.S. Navy
Owner: US NAVY
OCEANOGRAPHIC OFC - CODE 3142
WASHINGTON, DC 20373

Additional Remarks

RSTD - OFFL BUS ONLY - PPR F/W AND NON-TENANT ACFT, CTC NASNI ODO DSN 735-8233/8234, C619-545-8233/8234. NORTH ISLAND TENANT ACFT AND COAST GUARD HAVE PRIORITY FOR LCL PAT OPR.
CAUTION: EXTV COPTER TRNG.
MISC: RWY 08-26 AVBL FOR DAY AND NGT COPTER USE ONLY (NGT AND SVFR USE AT PILOTS OWN RISK).
FUEL: J5 (AVAILABLE 1100-2100 MON-THU; 1000-1800 FRI).

Instrument Procedures

NOTE: All procedures below are presented as PDF files. If you need a reader for these files, you should download the free Adobe Reader.

NOT FOR NAVIGATION. Please procure official charts for flight.
FAA instrument procedures published for use from 6 December 2018 at 0901Z to 3 January 2019 at 0900Z.

 
IAPs - Instrument Approach Procedures
COPTER TACAN RWY 27   download (96KB)
NOTE: Special Take-Off Minimums/Departure Procedures apply   download (174KB)

Other nearby airports with instrument procedures:

KSDM - Brown Field Municipal Airport (7 nm E)
KNZY - North Island Naval Air Station (Halsey Field) (9 nm NW)
KSAN - San Diego International Airport (11 nm N)
KMYF - Montgomery-Gibbs Executive Airport (15 nm N)
KSEE - Gillespie Field Airport (17 nm NE)
KNKX - Miramar MCAS (Joe Foss Field) Airport (18 nm N)
 
Loc | Ops | Rwys | IFR | FBO | Links
Com | Nav | Svcs | Stats | Notes


 
Area around KNRS (Imperial Beach Naval Outlying Field (Ream Field))
 
Road maps at: MapQuest Bing Google
 
Aerial photo
WARNING: Photo may not be current or correct
Aerial photo of KNRS (Imperial Beach Naval Outlying Field (Ream Field))
Taken in November 2008

Do you have a better or more recent aerial photo of Imperial Beach Naval Outlying Field (Ream Field) that you would like to share? If so, please send us your photo.

 
Sectional chart

 
Airport distance calculator
Flying to Imperial Beach Naval Outlying Field (Ream Field)? Find the distance to fly.

From to KNRS

Sunrise and sunset
Times for 14-Dec-2018
 Local
(UTC-8)
 Zulu
(UTC)
Morning civil twilight06:1614:16
Sunrise06:4314:43
Sunset16:4300:43
Evening civil twilight17:1001:10

Current date and time
Zulu (UTC)  15-Dec-2018 01:07:59
Local (UTC-8)  14-Dec-2018 17:07:59
 
METAR
KNRS 150056Z 09003KT 10SM FEW200 BKN250 16/10 A3012 RMK AO2 SLP198 T01560100 $
KSDM 
6nm E 
150053Z 00000KT 10SM CLR 16/08 A3012 RMK AO2 SLP196 T01560078
MMTJ 
8nm E 
150042Z 00000KT 10SM OVC200 16/08 A3015 RMK 8/007 HZY
KNZY 
10nm NW 
150052Z 36003KT 10SM SCT200 OVC250 18/11 A3011 RMK AO2 SLP195 T01830106 PNO $
KSAN 
11nm N 
150051Z 36003KT 10SM BKN170 OVC250 18/06 A3013 RMK AO2 SLP201 T01780061
KMYF 
15nm N 
150053Z 35003KT 10SM CLR 17/07 A3012 RMK AO2 SLP197 T01670072
KSEE 
17nm NE 
150047Z 28004KT 10SM OVC100 16/06 A3012
KNKX 
18nm N 
150055Z 00000KT 10SM BKN250 17/08 A3011 RMK AO2 SLP192 T01720078
TAF
MMTJ 
8nm E 
141630Z 1418/1524 29006KT P6SM SCT090 OVC160 TX22/1420Z TN12/1513Z FM150400 34005KT 5SM HZ SCT010 BKN160 BECMG 1509/1510 2SM BR HZ BKN003 TEMPO 1511/1515 1/2SM FG VV001 FM151700 35005KT 3SM BR HZ SCT010 FM151800 30006KT 6SM HZ SKC
KNZY 
10nm NW 
1423/1523 31006KT 9999 SCT200 BKN250 522909 523803 QNH3008INS FM150200 VRB06KT 9999 FEW200 BKN250 522909 523803 QNH3002INS TEMPO 1506/1512 00000KT 1600 BR BKN004 TEMPO 1508/1510 0400 FG VV002 FM151200 32006KT 9999 FEW007 SCT200 500000 QNH3003INS FM151900 33010G15KT 9999 SCT200 QNH3006INS T14/1510Z T19/1521Z FS30139
KSAN 
11nm N 
142055Z 1421/1524 31007KT P6SM FEW200 BKN250 FM150100 VRB04KT P6SM FEW010 BKN200 FM150900 VRB04KT P6SM BKN008 BKN150 FM151800 VRB04KT P6SM SCT010 BKN150 FM152000 30007KT P6SM SCT150
KNKX 
18nm N 
1421/1521 VRB05KT 9999 BKN250 QNH3004INS T24/1421Z T10/1411Z
NOTAMs
Click for the latest NOTAMs
NOTAMs are issued by the DoD/FAA and will open in a separate window not controlled by AirNav.

 

 
 

Would you like to see your business listed on this page?

 If your business provides an interesting product or service to pilots, flight crews, aircraft, or users of the Imperial Beach Naval Outlying Field (Ream Field), you should consider listing it here.  To start the listing process, click on the button below
 
Add a business
 

Other Pages about Imperial Beach Naval Outlying Field (Ream Field)

Update a link
 
Copyright © AirNav, LLC. All rights reserved. Privacy Policy  Contact